Lapse_Rate
6.0 6.0 6.0 5.8 5.9 5.8 5.7 5.6 5.5 5.6 5.6 5.6 5.7 5.7 5.6 5.3 5.1 5.0 4.9 5.3 5.5 5.8 5.6 5.4 5.7 5.8 5.9 5.5 5.4 5.3 5.2 5.5 5.2 6.6 6.8 6.9 6.4 6.1 5.7 5.5 5.4 5.1 5.6 5.2 4.2
6.0 6.0 6.0 5.9 5.9 5.9 5.9 5.9 5.8 5.7 5.6 5.5 5.6 5.6 5.7 5.5 5.2 5.1 5.0 5.3 5.2 5.5 5.8 5.6 5.1 5.4 5.4 5.2 5.2 5.5 5.2 5.8 6.1 6.3 6.7 6.5 6.6 6.3 5.8 5.7 5.4 5.2 5.2 4.7 4.1
6.2 6.1 6.1 6.0 6.0 5.9 5.9 6.0 6.0 5.9 5.8 5.8 5.7 5.5 5.5 5.6 5.4 5.2 5.1 5.3 5.5 5.6 5.7 5.6 5.7 5.9 5.9 5.4 5.4 5.7 5.7 5.2 5.5 6.0 6.3 6.5 6.2 6.2 6.1 5.7 5.8 6.1 5.3 5.0 4.3
6.4 6.3 6.2 6.2 6.2 6.2 6.1 6.1 6.0 5.9 5.9 6.0 5.9 5.9 5.5 5.3 5.3 4.9 5.2 5.2 5.6 5.6 6.0 6.2 6.0 6.1 6.0 5.8 5.7 6.2 5.9 6.0 5.8 6.2 6.4 6.5 6.4 6.2 5.9 6.0 6.1 6.0 5.7 5.2 4.5
6.4 6.4 6.4 6.3 6.3 6.2 6.2 6.1 6.1 6.0 6.1 6.2 6.1 6.2 6.0 5.5 5.6 5.2 5.2 5.2 5.7 5.8 5.9 6.2 6.2 5.9 6.4 6.4 6.3 6.3 6.3 5.6 6.1 6.5 6.8 6.1 6.4 5.7 5.8 5.8 6.1 6.0 6.0 5.1 4.7
6.4 6.4 6.4 6.4 6.4 6.4 6.3 6.3 6.3 6.2 6.3 6.3 6.4 6.3 6.2 5.8 5.3 5.4 5.4 5.4 5.6 6.0 5.9 6.0 6.3 6.3 6.5 6.2 6.6 6.4 6.4 6.2 6.6 6.7 6.2 6.3 6.3 5.8 5.3 5.6 5.9 6.1 5.5 4.9 4.7
6.4 6.4 6.4 6.3 6.4 6.4 6.4 6.4 6.4 6.5 6.4 6.4 6.4 6.5 6.4 6.3 5.4 5.2 6.3 5.6 5.7 6.0 6.1 6.1 5.7 6.4 6.6 6.5 6.8 6.3 6.4 6.5 6.0 6.5 5.9 6.4 5.9 6.1 5.3 5.4 5.9 6.2 5.4 4.7 4.6
6.4 6.4 6.4 6.4 6.4 6.4 6.4 6.5 6.4 6.4 6.4 6.4 6.3 6.4 6.3 6.3 5.9 6.0 6.1 6.2 5.9 6.0 6.2 5.9 5.7 5.7 6.6 6.7 6.4 6.8 6.0 6.3 5.7 6.3 6.3 6.6 6.4 6.0 5.4 5.5 5.9 5.9 5.4 4.8 4.8
6.6 6.6 6.6 6.6 6.6 6.6 6.5 6.5 6.5 6.4 6.3 6.2 6.2 6.3 6.3 6.0 5.9 6.1 6.2 6.0 5.5 5.7 6.1 6.0 5.7 6.3 6.3 6.7 7.1 7.3 6.8 6.2 6.2 6.9 6.9 6.8 6.6 6.4 6.0 5.9 6.2 6.1 5.5 5.2 5.0
6.8 6.8 6.8 6.8 6.7 6.7 6.7 6.6 6.5 6.4 6.1 6.0 6.0 6.0 5.9 5.7 5.7 6.3 6.4 6.0 5.7 5.7 5.7 5.8 5.9 6.1 6.3 6.6 7.0 7.7 7.2 6.6 6.9 7.2 6.8 6.7 7.0 6.8 6.4 6.3 5.8 5.9 5.4 5.5 5.1
7.0 6.9 6.9 6.9 6.8 6.8 6.7 6.5 6.5 6.2 6.3 6.2 5.6 5.4 5.6 5.7 5.7 6.0 6.1 6.3 5.9 5.7 5.8 6.0 5.8 5.8 6.5 6.9 7.5 7.7 8.2 8.0 7.4 7.0 7.6 7.7 6.4 7.0 6.6 6.2 5.9 5.8 5.4 5.5 5.4
7.1 7.0 7.0 7.0 6.9 6.8 6.7 6.8 6.3 6.2 6.1 6.0 5.8 5.7 5.8 5.8 5.9 6.3 6.0 6.1 6.0 5.9 5.9 5.9 5.8 6.4 6.8 7.0 7.4 7.7 7.7 8.5 8.1 8.1 7.7 8.1 7.1 7.3 6.8 6.6 6.7 5.7 5.7 5.4 5.4
7.1 7.0 7.0 7.0 6.8 6.8 6.9 6.5 6.3 6.1 6.1 6.0 6.2 6.1 5.9 6.0 5.8 5.7 5.9 5.9 6.0 6.0 6.0 6.0 6.3 6.7 7.0 7.2 7.3 7.8 7.8 8.2 8.3 7.8 8.1 8.3 8.0 7.4 6.9 6.9 6.0 6.0 6.1 5.6 5.3
7.0 7.0 7.0 6.9 6.8 6.9 6.5 6.3 6.3 6.0 6.0 6.3 6.2 6.1 6.1 6.1 6.2 6.3 6.3 6.4 6.2 6.1 6.4 6.1 6.5 6.8 6.9 7.3 7.7 7.6 8.2 8.6 8.1 7.5 7.8 8.3 8.3 7.4 6.9 6.4 6.5 6.8 6.2 5.8 5.6
6.9 6.8 6.8 6.9 6.9 7.0 6.8 6.6 6.4 6.1 6.1 6.7 6.5 6.4 6.3 6.4 6.6 6.6 6.6 6.7 6.5 6.4 6.4 6.4 6.7 6.9 6.9 7.0 7.9 7.9 8.6 8.8 8.9 8.2 8.0 8.7 8.9 8.6 8.2 6.7 6.6 7.0 6.8 6.0 5.7
6.7 6.7 6.7 6.9 6.8 7.0 6.9 6.6 6.5 6.1 6.9 7.0 7.0 6.6 6.5 6.7 6.7 6.9 6.9 6.7 6.8 6.6 6.6 6.3 6.6 6.8 6.8 7.4 7.6 8.3 8.9 8.9 8.9 8.8 7.6 8.2 8.4 8.9 8.3 7.8 6.9 7.4 7.4 6.8 5.9
6.7 6.8 6.8 6.8 6.8 6.8 6.6 6.6 6.3 6.4 7.2 6.9 6.9 6.8 6.9 7.1 7.2 7.2 7.1 7.2 7.4 7.2 7.0 7.2 7.1 7.0 7.1 7.3 7.7 8.5 8.9 8.7 8.2 8.2 7.0 8.4 8.7 8.1 8.6 8.3 8.2 7.8 7.8 7.5 6.5
6.6 6.7 6.8 6.7 6.8 6.6 6.4 6.2 6.4 7.1 6.9 6.8 6.8 7.0 7.3 7.5 7.7 7.4 7.4 7.5 7.7 8.0 7.6 7.6 7.3 7.5 8.0 7.5 7.7 8.6 9.2 9.0 7.5 7.7 7.8 8.6 8.5 8.6 8.9 9.2 8.2 8.2 7.9 7.4 6.8
6.6 6.7 6.7 6.7 6.7 6.4 6.5 6.3 6.7 6.6 6.5 6.5 6.9 7.3 7.6 7.9 7.7 7.7 7.7 7.7 7.8 7.8 7.3 7.7 6.9 7.7 8.2 7.8 8.4 8.1 9.0 8.7 9.4 9.2 8.9 9.0 9.4 9.4 9.4 9.2 8.4 8.1 7.1 7.0 7.2
6.5 6.6 6.7 6.9 6.4 6.2 6.0 6.4 6.4 6.6 6.7 6.7 6.9 7.1 7.1 7.3 7.3 7.4 7.6 8.0 7.5 8.2 8.3 8.4 7.5 8.2 8.0 8.4 8.5 8.9 8.6 9.3 9.5 8.3 8.1 8.8 9.4 8.5 9.1 9.0 8.9 8.5 7.3 7.3 7.1
6.4 6.3 6.2 6.4 6.3 6.4 6.4 6.5 6.9 6.5 6.6 6.9 6.8 7.0 7.0 7.1 7.1 7.0 7.3 7.7 7.2 7.8 8.3 8.3 8.4 7.8 8.3 8.5 8.4 9.1 9.2 9.3 9.6 9.6 8.2 7.5 8.5 8.9 8.8 8.7 8.9 8.6 8.3 7.5 7.4
6.3 6.2 6.3 6.3 6.4 6.7 6.8 6.9 7.2 7.0 6.8 6.8 6.9 7.0 7.0 6.9 6.8 6.8 6.9 7.4 7.4 7.4 7.8 8.1 8.1 8.4 7.9 8.2 8.5 8.7 9.1 9.5 9.4 9.0 9.0 9.0 8.2 9.4 8.9 8.4 8.4 8.6 8.6 8.4 7.9
6.4 6.2 6.2 6.5 6.7 6.8 6.9 7.1 7.0 7.1 7.0 7.0 6.8 6.9 6.8 6.8 6.7 6.8 7.0 7.4 7.7 7.8 7.9 8.0 8.3 7.9 8.7 8.6 8.8 9.0 8.7 8.8 9.7 9.3 8.8 8.4 8.0 9.5 8.9 9.3 8.4 8.0 8.6 7.5 7.2
6.7 6.5 6.4 6.7 6.8 7.0 7.0 7.3 7.3 6.9 6.9 6.7 7.0 6.9 7.0 7.0 7.0 6.8 6.9 7.4 8.0 7.9 7.9 7.8 8.2 8.2 8.1 7.2 7.4 7.7 7.8 8.2 8.9 9.7 9.0 8.8 8.4 9.6 9.6 8.7 8.2 8.2 7.3 6.4 7.2
6.5 6.2 6.4 6.8 6.5 6.9 6.9 6.9 7.2 7.4 7.1 6.6 6.9 7.3 7.0 6.8 6.7 6.6 6.8 7.1 8.0 7.9 7.6 8.0 7.9 8.1 8.3 7.8 7.5 7.5 7.8 8.0 8.6 9.0 9.4 9.0 9.4 9.4 9.5 9.0 9.0 8.2 7.8 6.5 6.0
6.3 6.4 6.5 6.8 6.7 6.7 7.0 6.9 7.2 7.3 7.1 7.2 7.0 7.1 6.9 6.7 6.6 6.7 6.8 7.1 7.4 8.2 7.9 8.4 8.1 7.9 7.8 8.0 7.4 7.5 7.6 7.9 8.3 9.1 9.3 9.4 9.1 8.6 9.1 8.0 8.2 8.2 7.4 7.3 7.9
6.4 6.3 6.5 6.8 6.7 6.9 7.1 6.8 7.1 6.8 6.8 7.0 7.0 6.9 6.7 6.6 6.8 6.8 7.0 7.2 7.6 7.9 8.1 7.7 8.2 8.1 7.7 7.8 7.3 7.6 8.2 8.4 8.5 9.0 9.2 9.5 9.1 8.6 8.7 8.2 7.5 7.3 7.7 7.3 6.3
Wind_Speed
19 19 20 21 20 19 20 20 21 20 19 20 21 19 18 19 25 4 6 2 6 20 6 7 12 16 15 5 7 12 4 5 4 6 9 15 16 15 22 22 16 7 18 14 21
19 20 20 20 21 20 20 20 21 22 21 19 20 20 18 17 5 9 4 11 20 20 6 10 2 5 2 5 3 5 3 6 6 14 7 13 14 14 15 20 20 20 18 17 17
19 19 20 20 21 21 20 21 21 22 22 22 19 20 18 14 5 2 0 6 18 19 8 2 7 3 5 4 5 7 7 7 17 23 24 14 13 4 15 20 21 23 18 16 19
19 20 20 20 21 21 21 21 22 22 22 21 20 18 20 4 3 2 7 11 6 8 7 3 4 3 2 2 3 3 13 23 15 22 5 6 7 4 15 21 22 19 17 12 15
20 20 20 21 21 21 21 22 22 22 22 20 17 15 6 3 8 8 8 6 5 2 9 8 8 3 3 4 4 5 5 7 7 8 7 15 12 9 17 22 21 18 18 15 11
21 22 22 21 21 21 21 21 21 21 20 18 13 11 4 3 5 16 11 7 8 8 7 12 13 10 4 10 3 5 6 4 8 8 16 15 12 6 14 20 20 16 16 14 12
21 22 23 22 21 20 21 21 22 21 18 14 7 4 5 10 8 11 12 8 7 9 10 15 17 10 8 7 3 2 4 8 9 6 6 14 7 6 10 18 18 13 14 12 15
21 22 21 22 23 22 22 22 22 21 15 7 5 3 6 3 5 6 9 9 10 10 11 15 15 11 5 8 7 4 8 2 7 11 7 7 4 8 8 17 15 13 14 12 11
20 22 22 23 21 21 22 24 23 18 12 11 4 3 7 2 4 7 8 9 10 9 11 17 8 6 7 7 8 2 6 4 8 14 6 4 6 16 13 16 16 14 13 12 11
22 22 23 24 22 20 25 18 3 10 6 7 7 5 7 1 3 5 6 10 8 9 10 10 3 5 6 5 7 6 6 5 4 7 18 10 8 13 16 16 15 11 10 12 13
24 24 23 24 21 17 11 4 3 2 5 8 11 6 7 10 2 4 5 8 7 8 6 6 4 8 11 14 16 15 10 6 9 9 7 18 11 19 19 17 16 14 9 13 13
25 24 24 24 25 17 3 4 6 5 7 14 13 5 8 3 5 9 5 3 4 7 8 8 11 11 16 16 18 16 8 8 7 13 10 15 18 20 20 20 20 17 13 14 15
26 24 23 24 25 7 4 4 5 7 3 6 1 2 1 1 5 6 3 7 7 6 10 9 9 14 18 17 18 17 8 5 4 6 11 3 8 19 18 17 20 19 15 16 18
26 24 22 30 5 4 1 7 6 7 2 6 5 2 4 7 6 6 7 5 4 10 10 9 13 19 19 15 15 15 18 14 13 9 8 12 7 19 22 21 24 21 16 18 17
26 24 20 5 7 6 5 6 6 3 1 4 4 7 5 4 6 2 7 2 8 9 6 9 12 15 20 20 14 15 19 16 10 11 6 11 2 7 23 22 24 22 18 17 17
25 22 21 4 3 9 12 7 3 1 2 2 6 7 8 9 10 6 3 6 5 6 12 10 13 14 13 19 21 17 18 17 14 5 6 15 8 8 19 23 22 21 21 21 16
27 21 9 8 4 13 6 4 2 3 0 5 6 8 9 9 9 3 6 8 5 4 6 10 17 17 17 18 22 18 13 8 8 5 5 14 10 16 18 22 25 28 27 25 19
31 21 9 8 17 11 4 3 4 8 11 10 8 11 9 6 4 8 9 6 10 7 9 7 11 10 17 15 13 17 10 8 10 7 6 12 7 15 15 22 30 28 27 25 24
32 3 3 5 18 6 3 3 3 7 10 8 11 7 7 12 9 4 5 6 7 10 5 5 11 23 17 18 18 23 15 14 10 13 10 7 8 17 12 13 20 25 24 26 26
3 4 9 17 7 2 1 6 4 6 8 6 7 8 9 10 10 11 7 7 9 13 7 5 8 14 19 10 19 16 16 11 8 11 14 6 4 5 7 15 14 23 29 28 26
2 3 3 11 3 1 4 6 5 9 7 5 9 7 9 8 9 10 8 10 8 11 9 8 4 15 17 6 12 15 14 14 9 7 10 6 7 10 10 2 6 21 27 26 26
4 3 4 2 1 4 5 2 1 3 4 2 0 6 7 10 5 9 12 10 7 7 7 5 5 5 21 20 18 17 13 13 11 9 4 5 16 3 6 9 7 6 28 25 27
3 5 2 3 3 4 4 1 4 1 6 6 6 7 9 8 7 7 10 11 13 5 3 6 4 6 16 8 7 5 15 19 10 6 16 5 6 3 12 10 5 12 9 9 14
3 3 0 2 5 5 5 6 7 7 5 2 2 7 8 7 5 7 11 13 14 7 8 6 3 7 10 19 17 21 24 22 21 6 11 14 15 5 12 19 10 22 20 17 14
3 3 5 4 5 7 7 8 7 7 4 4 2 7 5 5 8 9 13 10 17 3 7 1 7 10 16 19 16 18 22 20 17 16 10 11 6 5 12 9 12 13 24 17 15
3 4 8 9 10 2 5 6 10 3 7 6 6 9 8 6 6 8 9 8 5 10 9 11 8 11 17 18 18 20 25 18 16 17 9 4 4 17 19 16 19 16 18 20 18
4 6 4 7 7 8 2 2 7 6 3 2 7 6 7 9 8 8 9 10 13 14 11 7 7 6 11 13 18 11 11 19 20 19 14 7 8 19 12 19 10 7 13 13 12
Wind_Direction
349 346 344 342 340 340 338 335 331 328 329 326 324 322 321 320 312 197 265 192 181 182 206 187 206 226 241 235 202 128 115 333 261 258 68 92 84 89 118 135 156 118 132 136 128
346 344 342 338 336 336 335 331 326 323 325 326 322 319 321 328 290 265 218 158 149 163 174 232 232 348 340 234 204 90 75 230 260 286 114 107 117 128 115 107 115 122 126 133 132
341 340 337 335 333 332 330 326 323 322 323 324 322 318 318 318 283 273 331 186 162 174 237 1 298 216 240 6 262 114 149 1 276 281 287 122 87 54 119 121 130 133 143 144 138
337 335 333 331 329 327 326 323 320 320 322 321 322 318 311 264 347 87 173 173 186 218 263 255 230 56 318 282 274 184 153 171 231 240 194 90 90 68 127 133 132 140 140 152 139
334 331 329 327 325 324 322 320 320 320 320 319 321 320 320 229 258 152 156 174 161 242 238 234 267 138 240 276 285 237 169 185 202 150 113 106 80 80 119 130 134 146 144 162 152
331 329 327 325 324 323 321 317 316 316 316 315 314 313 253 258 116 145 155 154 227 197 252 256 256 249 230 261 181 241 303 306 207 151 115 115 104 92 124 131 138 155 156 167 156
331 328 325 325 323 320 317 314 312 312 313 322 319 294 274 248 329 174 160 186 210 210 234 262 270 278 297 316 166 35 17 338 358 359 93 95 24 114 138 135 142 167 168 169 164
330 328 326 321 320 320 316 310 304 301 304 324 296 275 257 267 316 314 320 305 203 229 230 255 277 295 354 303 265 146 143 42 346 5 180 121 195 233 240 145 150 182 179 165 159
330 326 321 319 320 319 312 301 290 286 273 284 256 244 276 248 242 235 231 273 283 214 249 262 289 312 316 296 288 90 251 140 172 217 266 177 145 220 178 157 163 189 183 166 156
330 327 324 321 324 324 316 289 270 313 227 236 255 302 277 289 51 356 316 247 272 283 231 252 286 281 285 271 257 246 144 146 223 182 234 178 196 181 173 166 171 202 184 163 155
331 330 327 323 323 328 341 347 359 6 218 254 281 228 337 343 319 235 231 307 273 304 286 254 246 242 248 259 260 272 276 151 198 239 158 221 170 191 182 168 176 196 189 167 158
332 332 329 325 320 317 268 331 13 260 312 291 265 258 237 50 292 282 169 242 247 247 278 289 255 244 265 267 274 280 258 274 322 199 188 222 192 186 190 185 176 197 188 172 165
333 333 331 325 321 299 208 42 293 340 286 297 83 270 64 268 266 291 274 206 237 249 250 251 267 257 252 264 274 277 241 211 155 282 218 162 177 180 194 194 176 194 194 181 172
333 334 338 330 337 309 307 14 3 331 311 195 216 136 264 207 265 214 197 231 250 227 264 243 266 273 272 251 254 270 273 268 127 115 242 232 242 188 186 200 177 190 192 186 178
332 332 330 355 300 302 347 330 320 22 98 128 122 158 253 231 252 98 118 185 264 273 243 254 272 271 271 275 261 253 272 281 217 161 271 285 212 246 178 194 180 186 188 189 185
326 328 337 107 207 250 304 319 346 327 106 120 46 358 350 343 314 297 164 158 201 277 295 287 290 275 273 277 273 275 263 274 287 148 239 267 249 261 179 186 182 182 188 194 191
322 318 315 315 262 312 337 322 328 246 326 41 359 345 324 291 298 22 18 320 290 276 260 256 260 277 276 280 285 276 269 262 274 276 212 226 246 256 192 178 173 186 189 190 197
317 313 230 233 275 305 317 327 252 64 41 9 3 305 272 288 322 32 359 315 327 345 311 281 280 257 255 252 259 272 254 232 244 236 259 244 247 258 186 187 175 183 187 187 192
315 231 234 249 234 255 341 305 3 25 31 358 314 334 3 349 356 346 295 18 10 38 30 320 334 319 256 272 246 267 265 260 239 261 274 260 269 266 180 173 177 186 184 186 190
309 297 267 250 214 282 294 250 324 76 35 345 323 9 350 347 344 347 341 33 6 359 19 287 308 303 307 292 277 238 253 270 248 235 251 270 260 252 256 188 184 177 178 186 188
247 262 229 157 144 259 236 262 80 104 101 357 340 335 331 328 341 333 326 332 37 341 352 320 14 308 319 306 262 282 243 250 251 226 237 263 264 208 269 249 185 180 179 182 184
315 286 134 141 205 220 243 51 267 316 64 295 44 322 344 335 337 323 311 310 347 326 323 5 275 297 290 288 288 280 278 234 237 259 261 241 252 278 141 17 252 259 179 184 186
293 276 177 148 248 286 336 197 121 164 66 21 322 359 344 321 317 268 304 319 309 278 45 345 350 335 322 323 295 288 335 328 248 184 240 239 275 271 104 41 59 6 91 151 206
285 296 180 179 232 269 1 341 341 130 141 151 33 294 293 278 316 336 324 309 318 341 26 339 256 242 269 280 298 307 317 315 312 204 231 243 254 226 148 142 276 58 30 37 15
233 321 8 318 357 356 351 340 316 313 123 87 282 301 340 359 341 316 316 336 334 6 349 286 286 307 297 290 318 309 302 301 309 298 220 244 266 236 189 128 97 75 51 358 333
353 353 343 302 316 223 267 233 278 2 36 359 339 342 356 327 347 350 350 341 304 326 338 322 305 321 313 309 318 300 305 290 292 291 261 252 355 88 96 63 67 69 67 26 346
1 336 309 295 298 298 293 42 348 16 336 33 16 6 324 11 344 313 293 281 273 277 280 273 293 325 280 314 315 301 349 360 341 305 289 207 136 110 69 94 102 75 87 69 6